| time (UTC) | temp F | wind direction | speed MPH | gust MPH | rain 1hr in | rain 24hr in | rain mn in | humidity % | barometer mb |
| 20260506203817 | 49 | 353 | 0.0 | 7.0 | 0.00 | 0.00 | 0.00 | 38 | 933.4 |
| 20260506203314 | 48 | 337 | 0.0 | 2.0 | 0.00 | 0.00 | 0.00 | 39 | 933.5 |
| 20260506202811 | 48 | 333 | 4.0 | 9.0 | 0.00 | 0.00 | 0.00 | 38 | 933.5 |
| 20260506202308 | 49 | 290 | 6.0 | 7.0 | 0.00 | 0.00 | 0.00 | 36 | 933.6 |
| 20260506201804 | 47 | 298 | 7.0 | 10.0 | 0.00 | 0.00 | 0.00 | 38 | 933.5 |
| 20260506201302 | 46 | 352 | 5.0 | 7.0 | 0.00 | 0.00 | 0.00 | 38 | 933.5 |
| 20260506200759 | 47 | 23 | 0.0 | 0.0 | 0.00 | 0.00 | 0.00 | 36 | 933.5 |
| 20260506200255 | 47 | 314 | 1.0 | 6.0 | 0.00 | 0.00 | 0.00 | 37 | 933.4 |
| 20260506195751 | 47 | 258 | 0.0 | 2.0 | 0.00 | 0.00 | 0.00 | 38 | 933.5 |
| 20260506195248 | 47 | 318 | 1.0 | 7.0 | 0.00 | 0.00 | 0.00 | 36 | 933.4 |
| 20260506194745 | 47 | 291 | 0.0 | 7.0 | 0.00 | 0.00 | 0.00 | 35 | 933.4 |
| 20260506194241 | 47 | 232 | 0.0 | 1.0 | 0.00 | 0.00 | 0.00 | 37 | 933.6 |
| 20260506193740 | 46 | 306 | 1.0 | 6.0 | 0.00 | 0.00 | 0.00 | 43 | 933.4 |
| 20260506193236 | 45 | 304 | 5.0 | 8.0 | 0.00 | 0.00 | 0.00 | 39 | 933.3 |
| 20260506192732 | 45 | 334 | 4.0 | 11.0 | 0.00 | 0.00 | 0.00 | 42 | 933.5 |
| 20260506192229 | 46 | 321 | 8.0 | 10.0 | 0.00 | 0.00 | 0.00 | 43 | 933.3 |
| 20260506191726 | 44 | 334 | 0.0 | 10.0 | 0.00 | 0.00 | 0.00 | 44 | 933.7 |
| 20260506191222 | 44 | 6 | 9.0 | 13.0 | 0.00 | 0.00 | 0.00 | 41 | 933.4 |
| 20260506190720 | 45 | 343 | 9.0 | 11.0 | 0.00 | 0.00 | 0.00 | 41 | 933.5 |
| 20260506190216 | 44 | 267 | 5.0 | 9.0 | 0.00 | 0.00 | 0.00 | 47 | 933.5 |
| 20260506185713 | 45 | 299 | 3.0 | 8.0 | 0.00 | 0.00 | 0.00 | 49 | 933.9 |
| 20260506185209 | 44 | 232 | 5.0 | 6.0 | 0.00 | 0.00 | 0.00 | 51 | 933.5 |
| 20260506184707 | 43 | 292 | 4.0 | 9.0 | 0.00 | 0.00 | 0.00 | 51 | 933.6 |
| 20260506184204 | 43 | 346 | 7.0 | 9.0 | 0.00 | 0.00 | 0.00 | 52 | 933.5 |
| 20260506183701 | 42 | 352 | 9.0 | 11.0 | 0.00 | 0.00 | 0.00 | 56 | 933.7 |
| 20260506183157 | 43 | 272 | 5.0 | 9.0 | 0.00 | 0.00 | 0.00 | 54 | 933.2 |
| 20260506182654 | 43 | 6 | 3.0 | 5.0 | 0.00 | 0.00 | 0.00 | 54 | 933.5 |
| 20260506182151 | 44 | 310 | 7.0 | 14.0 | 0.00 | 0.00 | 0.00 | 55 | 933.5 |
| 20260506181649 | 44 | 326 | 3.0 | 3.0 | 0.00 | 0.00 | 0.00 | 50 | 933.7 |
| 20260506181146 | 43 | 353 | 11.0 | 13.0 | 0.00 | 0.00 | 0.00 | 48 | 933.6 |
| 20260506180643 | 43 | 316 | 5.0 | 6.0 | 0.00 | 0.00 | 0.00 | 52 | 933.4 |
| 20260506180139 | 42 | 359 | 5.0 | 7.0 | 0.00 | 0.00 | 0.00 | 52 | 933.5 |
| 20260506175636 | 43 | 123 | 3.0 | 3.0 | 0.00 | 0.00 | 0.00 | 53 | 933.2 |
| 20260506175132 | 40 | 297 | 3.0 | 3.0 | 0.00 | 0.00 | 0.00 | 58 | 933.2 |
| 20260506174625 | 40 | 334 | 5.0 | 7.0 | 0.00 | 0.00 | 0.00 | 60 | 932.8 |
| 20260506174121 | 40 | 352 | 5.0 | 8.0 | 0.00 | 0.00 | 0.00 | 63 | 933.2 |
| 20260506173619 | 40 | 59 | 1.0 | 6.0 | 0.00 | 0.00 | 0.00 | 56 | 933.1 |
| 20260506173115 | 43 | 31 | 4.0 | 6.0 | 0.00 | 0.00 | 0.00 | 57 | 933.2 |
| 20260506172613 | 42 | 132 | 3.0 | 6.0 | 0.00 | 0.00 | 0.00 | 60 | 933.2 |
| 20260506172109 | 42 | 72 | 5.0 | 7.0 | 0.00 | 0.00 | 0.00 | 59 | 933.1 |
| 20260506171607 | 41 | 163 | 3.0 | 5.0 | 0.00 | 0.00 | 0.00 | 58 | 933.2 |
| 20260506171104 | 41 | 75 | 2.0 | 5.0 | 0.00 | 0.00 | 0.00 | 58 | 932.9 |
| 20260506170601 | 39 | 106 | 1.0 | 8.0 | 0.00 | 0.00 | 0.00 | 62 | 932.9 |
| 20260506170059 | 40 | 83 | 3.0 | 7.0 | 0.00 | 0.00 | 0.00 | 63 | 933.1 |
| 20260506165557 | 40 | 130 | 5.0 | 7.0 | 0.00 | 0.00 | 0.00 | 66 | 933.1 |
| 20260506165053 | 39 | 87 | 3.0 | 3.0 | 0.00 | 0.00 | 0.00 | 66 | 932.7 |
| 20260506164550 | 39 | 96 | 6.0 | 7.0 | 0.00 | 0.00 | 0.00 | 66 | 932.6 |
| 20260506164047 | 38 | 68 | 3.0 | 6.0 | 0.00 | 0.00 | 0.00 | 68 | 932.7 |
| 20260506163543 | 38 | 108 | 4.0 | 7.0 | 0.00 | 0.00 | 0.00 | 69 | 932.7 |
| 20260506163039 | 38 | 124 | 2.0 | 5.0 | 0.00 | 0.00 | 0.00 | 69 | 932.8 |
| 20260506162535 | 38 | 79 | 5.0 | 7.0 | 0.00 | 0.00 | 0.00 | 69 | 932.6 |
| 20260506162033 | 37 | 80 | 3.0 | 5.0 | 0.00 | 0.00 | 0.00 | 70 | 932.5 |
| 20260506161530 | 38 | 60 | 2.0 | 5.0 | 0.00 | 0.00 | 0.00 | 68 | 932.8 |
| 20260506161027 | 37 | 51 | 1.0 | 7.0 | 0.00 | 0.00 | 0.00 | 69 | 932.5 |
| 20260506160525 | 36 | 99 | 2.0 | 3.0 | 0.00 | 0.00 | 0.00 | 70 | 932.8 |
| 20260506160022 | 38 | 68 | 0.0 | 1.0 | 0.00 | 0.00 | 0.00 | 71 | 932.4 |
| 20260506155520 | 36 | 87 | 2.0 | 5.0 | 0.00 | 0.00 | 0.00 | 74 | 932.5 |
| 20260506153651 | 35 | 75 | 3.0 | 5.0 | 0.00 | 0.00 | 0.00 | 77 | 932.5 |
| 20260506153149 | 34 | 56 | 2.0 | 3.0 | 0.00 | 0.00 | 0.00 | 77 | 932.5 |
| 20260506152645 | 34 | 77 | 3.0 | 5.0 | 0.00 | 0.00 | 0.00 | 78 | 932.6 |
| 20260506152143 | 33 | 47 | 2.0 | 5.0 | 0.00 | 0.00 | 0.00 | 78 | 932.9 |
| 20260506151641 | 34 | 92 | 3.0 | 3.0 | 0.00 | 0.00 | 0.00 | 77 | 932.6 |
| 20260506151138 | 33 | 123 | 3.0 | 5.0 | 0.00 | 0.00 | 0.00 | 78 | 932.5 |
| 20260506150635 | 34 | 77 | 2.0 | 5.0 | 0.00 | 0.00 | 0.00 | 79 | 932.7 |
| 20260506150132 | 34 | 103 | 3.0 | 6.0 | 0.00 | 0.00 | 0.00 | 79 | 933.1 |
| 20260506145629 | 34 | 87 | 5.0 | 6.0 | 0.00 | 0.00 | 0.00 | 80 | 933.1 |
| 20260506145125 | 34 | 90 | 3.0 | 6.0 | 0.00 | 0.00 | 0.00 | 80 | 933.3 |
| 20260506144623 | 33 | 122 | 6.0 | 8.0 | 0.00 | 0.00 | 0.00 | 80 | 933.5 |
| 20260506144119 | 33 | 59 | 4.0 | 7.0 | 0.00 | 0.00 | 0.00 | 81 | 933.5 |
| 20260506143617 | 33 | 102 | 4.0 | 8.0 | 0.00 | 0.00 | 0.00 | 81 | 933.9 |
| 20260506143115 | 33 | 112 | 5.0 | 6.0 | 0.00 | 0.00 | 0.00 | 82 | 934.1 |
| 20260506142613 | 32 | 118 | 3.0 | 6.0 | 0.00 | 0.00 | 0.00 | 83 | 934.3 |
| 20260506142111 | 32 | 97 | 3.0 | 5.0 | 0.00 | 0.00 | 0.00 | 83 | 934.1 |
| 20260506141608 | 32 | 111 | 5.0 | 6.0 | 0.00 | 0.00 | 0.00 | 83 | 933.7 |
| 20260506141107 | 32 | 107 | 3.0 | 5.0 | 0.00 | 0.00 | 0.00 | 84 | 932.9 |
| 20260506140604 | 32 | 105 | 4.0 | 6.0 | 0.00 | 0.00 | 0.00 | 85 | 932.1 |
| 20260506140101 | 31 | 111 | 3.0 | 6.0 | 0.00 | 0.00 | 0.00 | 86 | 931.3 |
| 20260506135557 | 31 | 90 | 8.0 | 10.0 | 0.00 | 0.00 | 0.00 | 86 | 931.5 |
| 20260506135054 | 31 | 101 | 5.0 | 7.0 | 0.00 | 0.00 | 0.00 | 87 | 931.6 |
| 20260506134550 | 31 | 87 | 7.0 | 8.0 | 0.00 | 0.00 | 0.00 | 87 | 931.7 |
| 20260506134046 | 31 | 107 | 6.0 | 8.0 | 0.00 | 0.00 | 0.00 | 87 | 931.2 |
| 20260506133544 | 30 | 71 | 5.0 | 7.0 | 0.00 | 0.00 | 0.00 | 87 | 931.1 |
| 20260506133041 | 30 | 78 | 5.0 | 10.0 | 0.00 | 0.00 | 0.00 | 87 | 931.1 |
| 20260506132538 | 30 | 74 | 4.0 | 9.0 | 0.00 | 0.00 | 0.00 | 87 | 931.0 |
| 20260506132035 | 30 | 95 | 7.0 | 9.0 | 0.00 | 0.00 | 0.00 | 87 | 931.0 |
| 20260506131532 | 30 | 108 | 5.0 | 9.0 | 0.00 | 0.00 | 0.00 | 87 | 930.9 |
| 20260506131028 | 30 | 122 | 5.0 | 8.0 | 0.00 | 0.00 | 0.00 | 87 | 930.7 |
| 20260506130525 | 30 | 109 | 4.0 | 9.0 | 0.00 | 0.00 | 0.00 | 87 | 930.8 |
| 20260506130023 | 30 | 91 | 7.0 | 10.0 | 0.00 | 0.00 | 0.00 | 87 | 930.3 |
| 20260506125521 | 30 | 90 | 9.0 | 10.0 | 0.00 | 0.00 | 0.00 | 88 | 930.8 |
| 20260506125018 | 30 | 112 | 7.0 | 10.0 | 0.00 | 0.00 | 0.00 | 88 | 930.5 |
| 20260506124516 | 30 | 92 | 6.0 | 9.0 | 0.00 | 0.00 | 0.00 | 89 | 930.4 |
| 20260506124014 | 30 | 110 | 4.0 | 7.0 | 0.00 | 0.00 | 0.00 | 89 | 930.3 |
| 20260506123512 | 30 | 79 | 4.0 | 7.0 | 0.00 | 0.00 | 0.00 | 89 | 930.5 |
| 20260506123009 | 30 | 65 | 5.0 | 8.0 | 0.00 | 0.00 | 0.00 | 89 | 930.3 |
| 20260506122506 | 29 | 101 | 7.0 | 8.0 | 0.00 | 0.00 | 0.00 | 89 | 930.2 |
| 20260506122004 | 29 | 87 | 3.0 | 9.0 | 0.00 | 0.00 | 0.00 | 90 | 930.0 |
| 20260506121501 | 28 | 72 | 6.0 | 7.0 | 0.00 | 0.00 | 0.00 | 91 | 929.9 |
| 20260506120957 | 27 | 95 | 6.0 | 8.0 | 0.00 | 0.00 | 0.00 | 91 | 930.0 |
| 20260506120455 | 27 | 71 | 0.0 | 0.0 | 0.00 | 0.00 | 0.00 | 91 | 930.0 |
| 20260506115952 | 27 | 82 | 2.0 | 5.0 | 0.00 | 0.00 | 0.00 | 91 | 930.1 |
| 20260506115450 | 27 | 76 | 3.0 | 6.0 | 0.00 | 0.00 | 0.00 | 91 | 929.7 |
| 20260506114948 | 27 | 78 | 3.0 | 5.0 | 0.00 | 0.00 | 0.00 | 91 | 929.9 |
| 20260506114445 | 27 | 71 | 4.0 | 6.0 | 0.00 | 0.00 | 0.00 | 91 | 929.6 |
| 20260506113944 | 27 | 62 | 3.0 | 6.0 | 0.00 | 0.00 | 0.00 | 91 | 929.9 |
| 20260506113442 | 27 | 69 | 2.0 | 5.0 | 0.00 | 0.00 | 0.00 | 90 | 929.7 |
| 20260506112937 | 27 | 63 | 1.0 | 2.0 | 0.00 | 0.00 | 0.00 | 90 | 929.7 |
| 20260506112435 | 27 | 67 | 1.0 | 3.0 | 0.00 | 0.00 | 0.00 | 90 | 929.5 |
| 20260506111932 | 28 | 81 | 4.0 | 5.0 | 0.00 | 0.00 | 0.00 | 89 | 929.6 |
| 20260506111430 | 28 | 63 | 0.0 | 3.0 | 0.00 | 0.00 | 0.00 | 89 | 929.5 |
| 20260506110927 | 29 | 46 | 2.0 | 3.0 | 0.00 | 0.00 | 0.00 | 89 | 929.3 |
| 20260506110425 | 29 | 34 | 0.0 | 2.0 | 0.00 | 0.00 | 0.00 | 89 | 929.3 |
| 20260506105921 | 29 | 37 | 2.0 | 6.0 | 0.00 | 0.00 | 0.00 | 88 | 929.3 |
| 20260506105418 | 29 | 39 | 3.0 | 8.0 | 0.00 | 0.00 | 0.00 | 88 | 929.6 |
| 20260506104915 | 29 | 60 | 4.0 | 8.0 | 0.00 | 0.00 | 0.00 | 88 | 929.2 |
| 20260506104413 | 29 | 56 | 4.0 | 8.0 | 0.00 | 0.00 | 0.00 | 88 | 929.3 |
| 20260506103911 | 29 | 89 | 6.0 | 9.0 | 0.00 | 0.00 | 0.00 | 87 | 929.5 |
| 20260506103408 | 29 | 61 | 6.0 | 13.0 | 0.00 | 0.00 | 0.00 | 88 | 929.3 |
| 20260506102905 | 29 | 72 | 9.0 | 11.0 | 0.00 | 0.00 | 0.00 | 88 | 929.4 |
| 20260506102404 | 29 | 65 | 3.0 | 6.0 | 0.00 | 0.00 | 0.00 | 88 | 929.3 |
| 20260506101901 | 30 | 61 | 0.0 | 3.0 | 0.00 | 0.00 | 0.00 | 87 | 929.1 |
| 20260506101357 | 30 | 61 | 3.0 | 5.0 | 0.00 | 0.00 | 0.00 | 87 | 929.2 |
| 20260506100854 | 30 | 114 | 5.0 | 8.0 | 0.00 | 0.00 | 0.00 | 87 | 929.1 |
| 20260506100353 | 30 | 109 | 6.0 | 9.0 | 0.00 | 0.00 | 0.00 | 87 | 929.2 |
| 20260506095850 | 30 | 118 | 5.0 | 9.0 | 0.00 | 0.00 | 0.00 | 87 | 929.4 |
| 20260506095348 | 30 | 61 | 0.0 | 0.0 | 0.00 | 0.00 | 0.00 | 88 | 929.2 |
| 20260506094844 | 31 | 74 | 0.0 | 2.0 | 0.00 | 0.00 | 0.00 | 88 | 929.1 |
| 20260506094343 | 31 | 69 | 3.0 | 6.0 | 0.00 | 0.00 | 0.00 | 87 | 929.3 |
| 20260506093841 | 31 | 61 | 2.0 | 7.0 | 0.00 | 0.00 | 0.00 | 87 | 929.1 |
| 20260506093338 | 31 | 137 | 9.0 | 11.0 | 0.00 | 0.00 | 0.00 | 88 | 929.2 |
| 20260506092835 | 31 | 138 | 9.0 | 9.0 | 0.00 | 0.00 | 0.00 | 89 | 929.2 |
| 20260506092334 | 31 | 106 | 6.0 | 15.0 | 0.00 | 0.00 | 0.00 | 89 | 929.3 |
| 20260506091830 | 30 | 98 | 10.0 | 14.0 | 0.00 | 0.00 | 0.00 | 91 | 929.6 |
| 20260506091328 | 30 | 87 | 8.0 | 13.0 | 0.00 | 0.00 | 0.00 | 91 | 929.5 |
| 20260506090825 | 30 | 121 | 11.0 | 17.0 | 0.00 | 0.00 | 0.00 | 92 | 929.4 |
| 20260506090322 | 30 | 36 | 8.0 | 11.0 | 0.00 | 0.00 | 0.00 | 92 | 929.5 |
| 20260506085819 | 30 | 67 | 6.0 | 11.0 | 0.00 | 0.00 | 0.00 | 92 | 929.6 |
| 20260506085315 | 30 | 80 | 6.0 | 11.0 | 0.00 | 0.00 | 0.00 | 93 | 929.5 |
| 20260506084811 | 31 | 126 | 9.0 | 14.0 | 0.00 | 0.00 | 0.00 | 93 | 929.5 |
| 20260506084308 | 30 | 95 | 7.0 | 15.0 | 0.00 | 0.00 | 0.00 | 93 | 929.6 |
| 20260506083805 | 31 | 89 | 12.0 | 16.0 | 0.00 | 0.00 | 0.00 | 93 | 929.5 |
| 20260506083302 | 30 | 79 | 7.0 | 8.0 | 0.00 | 0.00 | 0.00 | 93 | 929.6 |
| 20260506082759 | 31 | 107 | 4.0 | 8.0 | 0.00 | 0.00 | 0.00 | 93 | 929.5 |
| 20260506082255 | 30 | 143 | 8.0 | 13.0 | 0.00 | 0.00 | 0.00 | 93 | 929.5 |
| 20260506081753 | 31 | 95 | 7.0 | 13.0 | 0.00 | 0.00 | 0.00 | 92 | 929.4 |
| 20260506081250 | 31 | 96 | 9.0 | 18.0 | 0.00 | 0.00 | 0.00 | 91 | 929.3 |
| 20260506080748 | 31 | 112 | 12.0 | 18.0 | 0.00 | 0.00 | 0.00 | 90 | 929.3 |
| 20260506080244 | 31 | 107 | 10.0 | 15.0 | 0.00 | 0.00 | 0.00 | 89 | 928.9 |
| 20260506073228 | 31 | 111 | 17.0 | 24.0 | 0.00 | 0.00 | 0.00 | 93 | 928.7 |
| 20260506072725 | 31 | 114 | 13.0 | 25.0 | 0.00 | 0.00 | 0.00 | 94 | 928.6 |
| 20260506072223 | 31 | 105 | 14.0 | 22.0 | 0.00 | 0.00 | 0.00 | 95 | 928.4 |
| 20260506071720 | 31 | 72 | 18.0 | 25.0 | 0.00 | 0.00 | 0.00 | 95 | 928.5 |
| 20260506071218 | 31 | 104 | 16.0 | 31.0 | 0.00 | 0.00 | 0.00 | 96 | 928.3 |
| 20260506070714 | 31 | 103 | 20.0 | 27.0 | 0.00 | 0.00 | 0.00 | 96 | 928.5 |
| 20260506070212 | 31 | 103 | 12.0 | 15.0 | 0.00 | 0.00 | 0.00 | 97 | 928.1 |
| 20260506062148 | 33 | 68 | 18.0 | 30.0 | 0.00 | 0.00 | 0.00 | 96 | 927.1 |
| 20260506061644 | 33 | 69 | 12.0 | 26.0 | 0.00 | 0.00 | 0.00 | 96 | 927.0 |
| 20260506061142 | 34 | 103 | 15.0 | 22.0 | 0.00 | 0.00 | 0.00 | 96 | 927.0 |
| 20260506060640 | 34 | 93 | 9.0 | 24.0 | 0.00 | 0.00 | 0.00 | 95 | 926.8 |
| 20260506060137 | 34 | 69 | 8.0 | 25.0 | 0.00 | 0.00 | 0.00 | 95 | 926.8 |
| 20260506051109 | 37 | 80 | 9.0 | 16.0 | 0.00 | 0.39 | 0.39 | 90 | 926.1 |
| 20260506050607 | 37 | 53 | 9.0 | 29.0 | 0.00 | 0.39 | 0.39 | 90 | 925.6 |
| 20260506050104 | 37 | 85 | 7.0 | 17.0 | 0.00 | 0.39 | 0.39 | 91 | 925.9 |
| 20260506045057 | 37 | 56 | 15.0 | 23.0 | 0.00 | 0.39 | 0.39 | 92 | 925.9 |
| 20260506044555 | 38 | 67 | 13.0 | 22.0 | 0.00 | 0.39 | 0.39 | 92 | 925.5 |
| 20260506044052 | 38 | 71 | 17.0 | 24.0 | 0.00 | 0.39 | 0.39 | 92 | 925.5 |
| 20260506043549 | 39 | 58 | 10.0 | 26.0 | 0.00 | 0.39 | 0.39 | 91 | 925.4 |
| 20260506043047 | 40 | 85 | 15.0 | 23.0 | 0.00 | 0.39 | 0.39 | 91 | 925.6 |
| 20260506042546 | 40 | 75 | 9.0 | 18.0 | 0.00 | 0.39 | 0.39 | 91 | 925.5 |
| 20260506042044 | 40 | 63 | 8.0 | 17.0 | 0.00 | 0.39 | 0.39 | 90 | 925.4 |
| 20260506041542 | 41 | 85 | 16.0 | 18.0 | 0.00 | 0.39 | 0.39 | 90 | 925.4 |
| 20260506041038 | 41 | 84 | 8.0 | 13.0 | 0.00 | 0.39 | 0.39 | 89 | 925.1 |
| 20260506040536 | 41 | 79 | 10.0 | 15.0 | 0.00 | 0.39 | 0.39 | 89 | 924.9 |
| 20260506040032 | 41 | 47 | 10.0 | 13.0 | 0.00 | 0.39 | 0.39 | 89 | 925.1 |
| 20260506035529 | 40 | 87 | 7.0 | 13.0 | 0.00 | 0.39 | 0.39 | 89 | 925.1 |
| 20260506035026 | 40 | 96 | 5.0 | 9.0 | 0.00 | 0.39 | 0.39 | 88 | 924.8 |
| 20260506034524 | 41 | 66 | 6.0 | 10.0 | 0.00 | 0.39 | 0.39 | 88 | 924.8 |
| 20260506034020 | 41 | 70 | 8.0 | 14.0 | 0.00 | 0.39 | 0.39 | 88 | 924.5 |
| 20260506033518 | 41 | 73 | 2.0 | 14.0 | 0.00 | 0.39 | 0.39 | 87 | 924.6 |
| 20260506033015 | 41 | 67 | 9.0 | 15.0 | 0.00 | 0.39 | 0.39 | 87 | 924.4 |
| 20260506032512 | 41 | 52 | 8.0 | 17.0 | 0.00 | 0.39 | 0.39 | 86 | 924.0 |
| 20260506032008 | 42 | 51 | 9.0 | 11.0 | 0.00 | 0.39 | 0.39 | 85 | 924.0 |
| 20260506031506 | 43 | 48 | 2.0 | 5.0 | 0.00 | 0.39 | 0.39 | 84 | 923.8 |
| 20260506031003 | 41 | 71 | 5.0 | 7.0 | 0.00 | 0.39 | 0.39 | 86 | 923.7 |
| 20260506030501 | 42 | 71 | 3.0 | 7.0 | 0.00 | 0.39 | 0.39 | 85 | 923.8 |
| 20260506025958 | 44 | 50 | 2.0 | 3.0 | 0.00 | 0.39 | 0.39 | 82 | 923.6 |
| 20260506025454 | 44 | 94 | 1.0 | 2.0 | 0.00 | 0.39 | 0.39 | 82 | 923.6 |
| 20260506024951 | 44 | 197 | 3.0 | 5.0 | 0.00 | 0.39 | 0.39 | 82 | 923.6 |
| 20260506024448 | 44 | 140 | 2.0 | 3.0 | 0.00 | 0.39 | 0.39 | 81 | 923.5 |
| 20260506023943 | 44 | 87 | 0.0 | 2.0 | 0.00 | 0.39 | 0.39 | 81 | 923.3 |
| 20260506023441 | 44 | 83 | 1.0 | 3.0 | 0.00 | 0.39 | 0.39 | 82 | 923.3 |
| 20260506022937 | 44 | 81 | 4.0 | 5.0 | 0.00 | 0.39 | 0.39 | 83 | 923.3 |
| 20260506022435 | 44 | 46 | 2.0 | 2.0 | 0.00 | 0.39 | 0.39 | 82 | 923.1 |
| 20260506021933 | 45 | 144 | 3.0 | 5.0 | 0.00 | 0.39 | 0.39 | 81 | 923.1 |
| 20260506021430 | 45 | 69 | 1.0 | 1.0 | 0.00 | 0.39 | 0.39 | 80 | 923.2 |
| 20260506020927 | 45 | 21 | 1.0 | 2.0 | 0.00 | 0.39 | 0.39 | 79 | 923.6 |
| 20260506020425 | 45 | 25 | 0.0 | 2.0 | 0.00 | 0.39 | 0.39 | 79 | 923.5 |
| 20260506015921 | 45 | 90 | 1.0 | 2.0 | 0.00 | 0.39 | 0.39 | 79 | 923.5 |
| 20260506015419 | 46 | 77 | 0.0 | 2.0 | 0.00 | 0.39 | 0.39 | 78 | 923.3 |
| 20260506014916 | 46 | 47 | 0.0 | 1.0 | 0.00 | 0.39 | 0.39 | 78 | 923.5 |
| 20260506014413 | 46 | 16 | 1.0 | 2.0 | 0.00 | 0.39 | 0.39 | 77 | 923.6 |
| 20260506013909 | 47 | 18 | 2.0 | 3.0 | 0.00 | 0.39 | 0.39 | 76 | 923.1 |
| 20260506013408 | 48 | 5 | 1.0 | 2.0 | 0.00 | 0.39 | 0.39 | 75 | 923.5 |
| 20260506012903 | 47 | 251 | 1.0 | 6.0 | 0.00 | 0.39 | 0.39 | 76 | 923.5 |
| 20260506012400 | 48 | 180 | 2.0 | 3.0 | 0.00 | 0.39 | 0.39 | 74 | 923.6 |
| 20260506011857 | 48 | 226 | 7.0 | 11.0 | 0.00 | 0.39 | 0.39 | 74 | 923.5 |
| 20260506011354 | 48 | 228 | 8.0 | 10.0 | 0.00 | 0.39 | 0.39 | 74 | 923.2 |
| 20260506010851 | 49 | 255 | 5.0 | 6.0 | 0.00 | 0.39 | 0.39 | 75 | 923.9 |
| 20260506010350 | 49 | 243 | 4.0 | 6.0 | 0.00 | 0.39 | 0.39 | 76 | 923.9 |
| 20260506005846 | 49 | 219 | 4.0 | 7.0 | 0.00 | 0.39 | 0.39 | 79 | 923.5 |
| 20260506005343 | 48 | 173 | 3.0 | 6.0 | 0.00 | 0.39 | 0.39 | 80 | 923.7 |
| 20260506004838 | 48 | 151 | 3.0 | 5.0 | 0.00 | 0.39 | 0.39 | 79 | 923.5 |
| 20260506004337 | 47 | 105 | 1.0 | 3.0 | 0.00 | 0.39 | 0.39 | 81 | 923.6 |
| 20260506003833 | 47 | 203 | 3.0 | 5.0 | 0.00 | 0.39 | 0.39 | 82 | 923.5 |
| 20260506003329 | 47 | 219 | 1.0 | 3.0 | 0.00 | 0.39 | 0.39 | 84 | 923.6 |
| 20260506002825 | 47 | 117 | 4.0 | 5.0 | 0.00 | 0.39 | 0.39 | 82 | 923.7 |
| 20260506002322 | 47 | 93 | 0.0 | 2.0 | 0.00 | 0.39 | 0.39 | 82 | 923.7 |
| 20260506001817 | 47 | 64 | 0.0 | 2.0 | 0.00 | 0.39 | 0.39 | 82 | 923.2 |
| 20260506001315 | 47 | 115 | 1.0 | 5.0 | 0.07 | 0.39 | 0.39 | 81 | 923.6 |
| 20260506000812 | 47 | 7 | 2.0 | 3.0 | 0.07 | 0.39 | 0.39 | 79 | 923.3 |
| 20260506000310 | 47 | 11 | 1.0 | 3.0 | 0.05 | 0.38 | 0.38 | 79 | 923.5 |
| 20260505235806 | 48 | 205 | 6.0 | 11.0 | 0.12 | 0.38 | 0.38 | 82 | 923.7 |
| 20260505235305 | 49 | 174 | 5.0 | 7.0 | 0.07 | 0.37 | 0.37 | 81 | 923.6 |
| 20260505234800 | 50 | 148 | 1.0 | 9.0 | 0.00 | 0.36 | 0.36 | 78 | 923.5 |
| 20260505234258 | 49 | 314 | 4.0 | 7.0 | 0.00 | 0.36 | 0.36 | 72 | 923.5 |
| 20260505233755 | 50 | 217 | 6.0 | 13.0 | 0.00 | 0.36 | 0.36 | 75 | 923.5 |
| 20260505233253 | 50 | 243 | 6.0 | 7.0 | 0.00 | 0.36 | 0.36 | 74 | 923.8 |
| 20260505232750 | 50 | 254 | 6.0 | 8.0 | 0.00 | 0.36 | 0.36 | 74 | 923.6 |
| 20260505232247 | 50 | 210 | 5.0 | 8.0 | 0.00 | 0.36 | 0.36 | 73 | 923.8 |
| 20260505231743 | 50 | 245 | 4.0 | 10.0 | 0.00 | 0.36 | 0.36 | 73 | 923.7 |
| 20260505231242 | 50 | 255 | 7.0 | 9.0 | 0.00 | 0.36 | 0.36 | 72 | 923.8 |
| 20260505230740 | 51 | 274 | 5.0 | 8.0 | 0.00 | 0.36 | 0.36 | 71 | 924.0 |
| 20260505230237 | 51 | 283 | 7.0 | 10.0 | 0.00 | 0.36 | 0.36 | 72 | 923.9 |
| 20260505225733 | 50 | 223 | 5.0 | 7.0 | 0.00 | 0.36 | 0.36 | 73 | 923.9 |
| 20260505225230 | 50 | 226 | 6.0 | 7.0 | 0.00 | 0.36 | 0.36 | 73 | 924.1 |
| 20260505224725 | 50 | 0 | 4.0 | 7.0 | 0.00 | 0.36 | 0.36 | 73 | 924.1 |
| 20260505224224 | 49 | 188 | 4.0 | 13.0 | 0.00 | 0.36 | 0.36 | 74 | 924.4 |
| 20260505223721 | 49 | 234 | 6.0 | 8.0 | 0.00 | 0.36 | 0.36 | 73 | 924.3 |
| 20260505223217 | 49 | 218 | 3.0 | 10.0 | 0.00 | 0.36 | 0.36 | 74 | 924.3 |
| 20260505222713 | 48 | 200 | 4.0 | 6.0 | 0.00 | 0.36 | 0.36 | 75 | 924.4 |
| 20260505222209 | 48 | 230 | 5.0 | 7.0 | 0.00 | 0.36 | 0.36 | 76 | 924.3 |
| 20260505221707 | 48 | 245 | 5.0 | 8.0 | 0.00 | 0.36 | 0.36 | 76 | 924.3 |
| 20260505221203 | 48 | 250 | 4.0 | 9.0 | 0.00 | 0.36 | 0.36 | 76 | 924.6 |
| 20260505220700 | 49 | 259 | 4.0 | 7.0 | 0.00 | 0.36 | 0.36 | 75 | 924.3 |
| 20260505220158 | 48 | 275 | 3.0 | 8.0 | 0.00 | 0.36 | 0.36 | 74 | 924.8 |
| 20260505215655 | 49 | 236 | 5.0 | 10.0 | 0.00 | 0.36 | 0.36 | 73 | 924.6 |
| 20260505215153 | 48 | 272 | 4.0 | 9.0 | 0.00 | 0.36 | 0.36 | 76 | 924.7 |
| 20260505214651 | 48 | 219 | 3.0 | 6.0 | 0.00 | 0.36 | 0.36 | 77 | 924.8 |
| 20260505214148 | 48 | 347 | 3.0 | 5.0 | 0.00 | 0.36 | 0.36 | 77 | 924.6 |
| 20260505213645 | 47 | 250 | 1.0 | 5.0 | 0.00 | 0.36 | 0.36 | 77 | 924.8 |
| 20260505213142 | 47 | 335 | 3.0 | 6.0 | 0.00 | 0.36 | 0.36 | 77 | 924.7 |
| 20260505212638 | 48 | 315 | 2.0 | 3.0 | 0.00 | 0.36 | 0.36 | 76 | 924.8 |
| 20260505212136 | 47 | 226 | 3.0 | 7.0 | 0.00 | 0.36 | 0.36 | 75 | 924.8 |
| 20260505211632 | 47 | 199 | 3.0 | 6.0 | 0.00 | 0.36 | 0.36 | 77 | 924.9 |
| 20260505211130 | 46 | 120 | 2.0 | 5.0 | 0.00 | 0.36 | 0.36 | 78 | 924.7 |
| 20260505210626 | 46 | 208 | 3.0 | 7.0 | 0.00 | 0.36 | 0.36 | 78 | 924.6 |
| 20260505210123 | 46 | 216 | 3.0 | 5.0 | 0.00 | 0.36 | 0.36 | 78 | 924.8 |
| 20260505205621 | 46 | 227 | 3.0 | 7.0 | 0.00 | 0.36 | 0.36 | 77 | 925.1 |
| 20260505205119 | 45 | 337 | 6.0 | 8.0 | 0.00 | 0.36 | 0.36 | 78 | 925.1 |
| 20260505204615 | 45 | 182 | 3.0 | 5.0 | 0.00 | 0.36 | 0.36 | 81 | 925.3 |
| 20260505204113 | 44 | 333 | 4.0 | 6.0 | 0.00 | 0.36 | 0.36 | 85 | 925.2 |